Overview Statistics Trail Chart Weather Telemetry Raw packets
 

This is the latest recevied weather packets stored in our database for station/object DL7KAW-10. If no packets are shown the sender has not sent any weather packets the latest 10 day(s).

<< 2 3 4 5 6 7 8 >>
Time Temp. Humidity Pressure Rain* Wind** Luminosity Snow
1788628050 19.44° C 73% 1015.8 hPa - - - -
1788627150 19.44° C 75% 1015.8 hPa - - - -
1788626250 19.44° C 74% 1015.5 hPa - - - -
1788625350 19.44° C 73% 1015.3 hPa - - - -
1788624450 19.44° C 73% 1015.2 hPa - - - -
1788623550 19.44° C 71% 1015.2 hPa - - - -
1788622650 19.44° C 74% 1015 hPa - - - -
1788621750 20° C 72% 1015 hPa - - - -
1788620849 20° C 71% 1015 hPa - - - -
1788619949 20° C 71% 1015.1 hPa - - - -
1788619049 20° C 70% 1014.8 hPa - - - -
1788618149 19.44° C 71% 1014.7 hPa - - - -
1788617249 20° C 70% 1014.3 hPa - - - -
1788616349 20° C 70% 1014.7 hPa - - - -
1788615449 20° C 70% 1013.6 hPa - - - -
1788614549 20° C 70% 1013.6 hPa - - - -
1788613648 20° C 70% 1013.5 hPa - - - -
1788612748 20° C 71% 1013.4 hPa - - - -
1788611848 20° C 70% 1013.4 hPa - - - -
1788610948 20° C 69% 1013.3 hPa - - - -
1788610048 20° C 69% 1013.3 hPa - - - -
1788609148 20° C 69% 1013.5 hPa - - - -
1788608248 20° C 69% 1013.5 hPa - - - -
1788607347 20° C 70% 1013.5 hPa - - - -
1788606447 20° C 69% 1013.3 hPa - - - -

* Rain since midnight (hover to see other rain measurements)
** Current wind speed in m/s (hover to see current wind gust speed)